CW3375 Weather Reports


time (UTC)temp
F
wind
direction
speed
knots
gust
knots
rain 1hr
in
rain 24hr
in
rain mn
in
humidity
%
barometer
mb
20260503194532 73 298 1.7 7.8 0.00 0.00 0.00 99 1012.3
20260503193832 74 336 5.2 9.6 0.00 0.00 0.00 99 1012.3
20260503193132 75 296 3.5 14.8 0.00 0.00 0.00 99 1012.3
20260503192432 75 290 1.7 14.8 0.00 0.00 0.00 99 1012.3
20260503191733 75 275 4.3 15.6 0.00 0.00 0.00 99 1012.2
20260503191115 76 244 8.7 15.6 0.00 0.00 0.00 99 1012.3
20260503190332 77 330 3.5 12.2 0.00 0.00 0.00 99 1012.3
20260503185632 77 228 7.8 12.2 0.00 0.00 0.00 99 1012.3
20260503184932 75 227 6.1 12.2 0.00 0.00 0.00 99 1012.5
20260503184233 75 226 5.2 10.4 0.00 0.00 0.00 99 1012.6
20260503183532 75 226 7.0 9.6 0.00 0.00 0.00 99 1012.7
20260503182832 77 229 5.2 9.6 0.00 0.00 0.00 99 1012.8
20260503182133 78 129 4.3 7.0 0.00 0.00 0.00 99 1012.8
20260503181432 76 145 2.6 6.1 0.00 0.00 0.00 99 1012.8
20260503180733 74 114 2.6 5.2 0.00 0.00 0.00 99 1012.8
20260503180114 74 44 0.9 5.2 0.00 0.00 0.00 99 1012.9
20260503175332 76 272 1.7 7.8 0.00 0.00 0.00 99 1013.0
20260503174715 76 140 3.5 7.8 0.00 0.00 0.00 99 1013.1
20260503173932 76 78 1.7 7.0 0.00 0.00 0.00 99 1013.2
20260503173232 74 127 1.7 5.2 0.00 0.00 0.00 99 1013.3
20260503172532 74 17 0.9 6.1 0.00 0.00 0.00 99 1013.4
20260503171832 74 88 3.5 5.2 0.00 0.00 0.00 99 1013.4
20260503171132 74 195 0.9 5.2 0.00 0.00 0.00 99 1013.4
20260503170432 74 30 1.7 4.3 0.00 0.00 0.00 99 1013.4
20260503160132 66 61 0.9 3.5 0.00 0.00 0.00 97 1014.0
20260503150614 59 277 0.0 3.5 0.00 0.00 0.00 96 1014.1
20260503140232 50 120 0.9 2.6 0.00 0.00 0.00 94 1014.0
20260503131332 48 0.0 1.7 0.00 0.00 0.00 94 1013.7
20260503130632 48 128 0.0 1.7 0.00 0.00 0.00 94 1013.7
20260503110732 49 0.0 0.0 0.00 0.00 0.00 94 1013.8
20260503090132 52 350 0.9 1.7 0.00 0.00 0.00 94 1013.4
20260503081232 53 0.0 0.0 0.00 0.00 0.00 95 1013.4
20260503080615 53 0.0 0.0 0.00 0.00 0.00 95 1013.4
20260503072332 53 0.0 0.0 0.00 0.00 0.00 95 1013.3
20260503071632 53 0.0 0.0 0.00 0.00 0.00 95 1013.3
20260503071014 53 0.0 0.0 0.00 0.00 0.00 95 1013.2
20260503070232 53 0.0 0.0 0.00 0.00 0.00 95 1013.2
20260503054531 56 0.0 0.0 0.00 0.00 0.02 95 1012.9
20260503053914 56 0.0 1.7 0.00 0.00 0.02 95 1012.9
20260503053132 56 189 0.9 3.5 0.00 0.00 0.02 95 1012.9
20260503052432 57 208 1.7 5.2 0.00 0.00 0.02 95 1012.9
20260503051731 57 221 3.5 4.3 0.00 0.00 0.02 95 1013.0
20260503051032 57 212 1.7 6.1 0.00 0.00 0.02 96 1013.0
20260503050332 57 218 2.6 6.1 0.00 0.00 0.02 96 1013.0
20260503045632 57 229 4.3 6.1 0.00 0.00 0.02 96 1013.0
20260503045014 58 223 4.3 7.0 0.00 0.00 0.02 96 1013.0
20260503044315 58 227 6.1 7.0 0.00 0.00 0.02 96 1013.0
20260503043532 58 227 3.5 4.3 0.00 0.00 0.02 96 1012.9
20260503042831 58 230 2.6 6.1 0.00 0.00 0.02 96 1012.8
20260503042131 58 225 2.6 6.1 0.00 0.00 0.02 96 1012.8
20260503041431 59 190 0.0 1.7 0.00 0.00 0.02 96 1012.7
20260503040815 59 180 0.9 2.6 0.00 0.00 0.02 96 1012.6
20260503040032 60 0.0 4.3 0.00 0.00 0.02 96 1012.5
20260503035332 60 233 2.6 4.3 0.00 0.00 0.02 96 1012.4
20260503034714 60 241 1.7 3.5 0.00 0.00 0.02 96 1012.3
20260503033932 60 218 2.6 3.5 0.00 0.00 0.02 96 1012.3
20260503033231 61 154 0.9 5.2 0.00 0.00 0.02 96 1012.2
20260503032614 61 225 2.6 5.2 0.00 0.00 0.02 96 1012.2
20260503031832 61 231 4.3 6.1 0.00 0.00 0.02 96 1012.3
20260503031132 62 203 0.9 4.3 0.00 0.00 0.02 97 1012.2
20260503030432 63 145 1.7 2.6 0.00 0.00 0.02 97 1012.1
20260503025732 64 203 0.0 2.6 0.00 0.00 0.02 97 1012.1
20260503025031 64 208 0.9 3.5 0.00 0.00 0.02 97 1012.1
20260503024332 65 212 2.6 5.2 0.00 0.00 0.02 97 1012.1
20260503023714 65 163 0.9 3.5 0.00 0.00 0.02 97 1012.1
20260503022931 65 206 1.7 4.3 0.00 0.00 0.02 97 1012.1
20260503022231 65 222 3.5 5.2 0.00 0.00 0.02 97 1012.2
20260503021532 66 215 3.5 6.1 0.00 0.00 0.02 97 1012.2
20260503020832 66 159 4.3 6.1 0.00 0.00 0.02 97 1012.2
20260503020132 67 220 4.3 7.8 0.00 0.00 0.02 97 1012.3
20260503015431 67 212 5.2 10.4 0.00 0.00 0.02 98 1012.3
20260503014732 69 221 7.0 10.4 0.00 0.00 0.02 98 1012.4
20260503014031 70 224 5.2 7.0 0.00 0.00 0.02 98 1012.5
20260503013332 72 212 1.7 4.3 0.00 0.00 0.02 98 1012.6
20260503012631 73 203 3.5 7.0 0.00 0.00 0.02 99 1012.6
20260503011932 73 256 3.5 7.8 0.00 0.00 0.02 99 1012.6
20260503011314 73 360 0.9 10.4 0.00 0.00 0.02 99 1012.6
20260503010532 73 248 4.3 10.4 0.00 0.00 0.02 99 1012.7
20260503005832 74 245 3.5 14.8 0.00 0.00 0.02 99 1012.7
20260503005131 74 302 4.3 14.8 0.00 0.00 0.02 99 1012.7
20260503004432 74 347 2.6 13.0 0.00 0.00 0.02 99 1012.7
20260503003731 74 293 4.3 13.0 0.00 0.00 0.02 99 1012.7
20260503003031 74 323 1.7 11.3 0.00 0.00 0.02 99 1012.8
20260503002332 74 294 2.6 7.8 0.00 0.00 0.02 99 1012.7
20260503001631 75 338 5.2 10.4 0.00 0.00 0.02 99 1012.8
20260503000931 74 268 2.6 7.8 0.00 0.00 0.02 99 1012.8
20260503000314 74 299 3.5 7.8 0.00 0.00 0.02 99 1012.9
20260502235531 74 292 1.7 9.6 0.00 0.00 0.02 99 1013.0
20260502234831 74 313 5.2 9.6 0.00 0.00 0.02 99 1013.0
20260502234131 74 292 4.3 10.4 0.00 0.00 0.02 99 1013.1
20260502233432 74 319 4.3 10.4 0.00 0.00 0.02 99 1013.2
20260502232731 74 301 2.6 6.1 0.00 0.00 0.02 99 1013.3
20260502232031 75 316 4.3 12.2 0.00 0.00 0.02 99 1013.3
20260502231415 75 277 3.5 12.2 0.00 0.00 0.02 99 1013.3
20260502230631 75 304 5.2 10.4 0.00 0.00 0.02 99 1013.4
20260502225931 74 307 4.3 10.4 0.00 0.00 0.02 99 1013.5
20260502225315 73 287 3.5 7.8 0.00 0.00 0.02 99 1013.6
20260502224531 73 285 3.5 7.0 0.00 0.00 0.02 99 1013.8
20260502223831 73 290 4.3 10.4 0.00 0.00 0.02 99 1013.9
20260502223132 73 284 4.3 12.2 0.00 0.00 0.02 99 1014.1
20260502222431 73 323 5.2 10.4 0.00 0.00 0.02 99 1014.2
20260502221731 73 311 2.6 7.8 0.00 0.00 0.02 99 1014.2
20260502221031 74 283 4.3 12.2 0.00 0.00 0.02 99 1014.3
20260502220331 73 287 3.5 13.0 0.00 0.00 0.02 99 1014.3
20260502215631 73 326 5.2 13.0 0.00 0.00 0.02 99 1014.3
20260502214931 73 309 3.5 7.0 0.00 0.00 0.02 99 1014.5
20260502214232 74 299 2.6 8.7 0.00 0.00 0.02 99 1014.5
20260502213531 73 277 1.7 9.6 0.00 0.00 0.02 99 1014.6
20260502212831 72 290 6.1 17.4 0.00 0.00 0.02 98 1014.8
20260502212132 72 329 6.1 17.4 0.00 0.00 0.02 98 1014.8
20260502211431 72 323 4.3 13.9 0.00 0.00 0.02 98 1014.8
20260502210731 72 307 4.3 13.0 0.00 0.00 0.02 98 1014.8
20260502210032 73 346 7.8 13.0 0.00 0.00 0.02 99 1014.9
20260502205414 73 277 3.5 7.0 0.00 0.00 0.02 99 1015.0
20260502204714 72 320 3.5 8.7 0.00 0.00 0.02 98 1015.1
20260502203932 70 295 2.6 8.7 0.00 0.00 0.02 98 1015.1
20260502203231 70 263 4.3 11.3 0.00 0.00 0.02 98 1015.2
20260502202532 71 297 4.3 11.3 0.00 0.00 0.02 98 1015.2
20260502201831 71 299 4.3 10.4 0.00 0.00 0.02 98 1015.3
20260502201131 71 291 3.5 14.8 0.00 0.00 0.02 98 1015.3
20260502200432 71 274 4.3 13.9 0.00 0.00 0.02 98 1015.4
20260502195732 71 294 4.3 9.6 0.00 0.00 0.02 98 1015.4
20260502195031 71 327 5.2 9.6 0.00 0.00 0.02 98 1015.5